Tracking 31023 objects as of 19-Jul-2025
HD Live streaming from Space Station
objects crossing your sky now

USA 7

Track USA 7 now!
USA 7 is classified as:


NORAD ID: 15453
Int'l Code: 1984-129A
Perigee: 36,183.1 km
Apogee: 36,208.9 km
Inclination: 12.0 °
Period: 1,456.7 minutes
Semi major axis: 42566 km
RCS: Unknown
Launch date: December 22, 1984
Source: United States (US)
Launch site: AIR FORCE EASTERN TEST RANGE (AFETR)
Your satellite tracking list
Your tracking list is empty




NASA's NSSDC Master Catalog

Two Line Element Set (TLE):
1 15453U 84129A   25199.32384372 -.00000012  00000-0  00000-0 0  9994
2 15453  12.0370 323.3644 0003032 232.7642 122.1494  0.98853915 22748
Source of the keplerian elements: McCants